EUTELSAT HOTBIRD 13F

Last updated on Sun Oct 06 2024 00:02:42 GMT+0000 (Coordinated Universal Time)

1 54048U 22134A 24279.03660721 .00000097 00000+0 00000+0 0 9996 2 54048 0.0657 289.6907 0002051 71.7891 38.9271 1.00272800 7224
UTC large
Height (km)
Speed (km/s)
/
Latitude / Longitude
Inclination (degrees)
Orbital Period (minutes)
Azimuth
Elevation
Range (km)
Doppler Factor

Next 0 passes for location: London (51.5072 / 0.1276)

Sorry there are no passes over London.